Year,Month,Day,Hour,Minute,Value (Times are PST for insolation in W/m^2)
2008,03,24,00,00,0.00
2008,03,24,00,01,0.00
2008,03,24,00,02,0.00
2008,03,24,00,03,0.00
2008,03,24,00,04,0.00
2008,03,24,00,05,0.00
2008,03,24,00,06,0.00
2008,03,24,00,07,0.00
2008,03,24,00,08,0.00
2008,03,24,00,09,0.00
2008,03,24,00,10,0.00
2008,03,24,00,11,0.00
2008,03,24,00,12,0.00
2008,03,24,00,13,0.00
2008,03,24,00,14,0.00
2008,03,24,00,15,0.00
2008,03,24,00,16,0.00
2008,03,24,00,17,0.00
2008,03,24,00,18,0.00
2008,03,24,00,19,0.00
2008,03,24,00,20,0.00
2008,03,24,00,21,0.00
2008,03,24,00,22,0.00
2008,03,24,00,23,0.00
2008,03,24,00,24,0.00
2008,03,24,00,25,0.00
2008,03,24,00,26,0.00
2008,03,24,00,27,0.00
2008,03,24,00,28,0.00
2008,03,24,00,29,0.00
2008,03,24,00,30,0.00
2008,03,24,00,31,0.00
2008,03,24,00,32,0.00
2008,03,24,00,33,0.00
2008,03,24,00,34,0.00
2008,03,24,00,35,0.00
2008,03,24,00,36,0.00
2008,03,24,00,37,0.00
2008,03,24,00,38,0.00
2008,03,24,00,39,0.00
2008,03,24,00,40,0.00
2008,03,24,00,41,0.00
2008,03,24,00,42,0.00
2008,03,24,00,43,0.00
2008,03,24,00,44,0.00
2008,03,24,00,45,0.00
2008,03,24,00,46,0.00
2008,03,24,00,47,0.00
2008,03,24,00,48,0.00
2008,03,24,00,49,0.00
2008,03,24,00,50,0.00
2008,03,24,00,51,0.00
2008,03,24,00,52,0.00
2008,03,24,00,53,0.00
2008,03,24,00,54,0.00
2008,03,24,00,55,0.00
2008,03,24,00,56,0.00
2008,03,24,00,57,0.00
2008,03,24,00,58,0.00
2008,03,24,00,59,0.00
2008,03,24,01,00,0.00
2008,03,24,01,01,0.00
2008,03,24,01,02,0.00
2008,03,24,01,03,0.00
2008,03,24,01,04,0.00
2008,03,24,01,05,0.00
2008,03,24,01,06,0.00
2008,03,24,01,07,0.00
2008,03,24,01,08,0.00
2008,03,24,01,09,0.00
2008,03,24,01,10,0.00
2008,03,24,01,11,0.00
2008,03,24,01,12,0.00
2008,03,24,01,13,0.00
2008,03,24,01,14,0.00
2008,03,24,01,15,0.00
2008,03,24,01,16,0.00
2008,03,24,01,17,0.00
2008,03,24,01,18,0.00
2008,03,24,01,19,0.00
2008,03,24,01,20,0.00
2008,03,24,01,21,0.00
2008,03,24,01,22,0.00
2008,03,24,01,23,0.00
2008,03,24,01,24,0.00
2008,03,24,01,25,0.00
2008,03,24,01,26,0.00
2008,03,24,01,27,0.00
2008,03,24,01,28,0.00
2008,03,24,01,29,0.00
2008,03,24,01,30,0.00
2008,03,24,01,31,0.00
2008,03,24,01,32,0.00
2008,03,24,01,33,0.00
2008,03,24,01,34,0.00
2008,03,24,01,35,0.00
2008,03,24,01,36,0.00
2008,03,24,01,37,0.00
2008,03,24,01,38,0.00
2008,03,24,01,39,0.00
2008,03,24,01,40,0.00
2008,03,24,01,41,0.00
2008,03,24,01,42,0.00
2008,03,24,01,43,0.00
2008,03,24,01,44,0.00
2008,03,24,01,45,0.00
2008,03,24,01,46,0.00
2008,03,24,01,47,0.00
2008,03,24,01,48,0.00
2008,03,24,01,49,0.00
2008,03,24,01,50,0.00
2008,03,24,01,51,0.00
2008,03,24,01,52,0.00
2008,03,24,01,53,0.00
2008,03,24,01,54,0.00
2008,03,24,01,55,0.00
2008,03,24,01,56,0.00
2008,03,24,01,57,0.00
2008,03,24,01,58,0.00
2008,03,24,01,59,0.00
2008,03,24,02,00,0.00
2008,03,24,02,01,0.00
2008,03,24,02,02,0.00
2008,03,24,02,03,0.00
2008,03,24,02,04,0.00
2008,03,24,02,05,0.00
2008,03,24,02,06,0.00
2008,03,24,02,07,0.00
2008,03,24,02,08,0.00
2008,03,24,02,09,0.00
2008,03,24,02,10,0.00
2008,03,24,02,11,0.00
2008,03,24,02,12,0.00
2008,03,24,02,13,0.00
2008,03,24,02,14,0.00
2008,03,24,02,15,0.00
2008,03,24,02,16,0.00
2008,03,24,02,17,0.00
2008,03,24,02,18,0.00
2008,03,24,02,19,0.00
2008,03,24,02,20,0.00
2008,03,24,02,21,0.00
2008,03,24,02,22,0.00
2008,03,24,02,23,0.00
2008,03,24,02,24,0.00
2008,03,24,02,25,0.00
2008,03,24,02,26,0.00
2008,03,24,02,27,0.00
2008,03,24,02,28,0.00
2008,03,24,02,29,0.00
2008,03,24,02,30,0.00
2008,03,24,02,31,0.00
2008,03,24,02,32,0.00
2008,03,24,02,33,0.00
2008,03,24,02,34,0.00
2008,03,24,02,35,0.00
2008,03,24,02,36,0.00
2008,03,24,02,37,0.00
2008,03,24,02,38,0.00
2008,03,24,02,39,0.00
2008,03,24,02,40,0.00
2008,03,24,02,41,0.00
2008,03,24,02,42,0.00
2008,03,24,02,43,0.00
2008,03,24,02,44,0.00
2008,03,24,02,45,0.00
2008,03,24,02,46,0.00
2008,03,24,02,47,0.00
2008,03,24,02,48,0.00
2008,03,24,02,49,0.00
2008,03,24,02,50,0.00
2008,03,24,02,51,0.00
2008,03,24,02,52,0.00
2008,03,24,02,53,0.00
2008,03,24,02,54,0.00
2008,03,24,02,55,0.00
2008,03,24,02,56,0.00
2008,03,24,02,57,0.00
2008,03,24,02,58,0.00
2008,03,24,02,59,0.00
2008,03,24,03,00,0.00
2008,03,24,03,01,0.00
2008,03,24,03,02,0.00
2008,03,24,03,03,0.00
2008,03,24,03,04,0.00
2008,03,24,03,05,0.00
2008,03,24,03,06,0.00
2008,03,24,03,07,0.00
2008,03,24,03,08,0.00
2008,03,24,03,09,0.00
2008,03,24,03,10,0.00
2008,03,24,03,11,0.00
2008,03,24,03,12,0.00
2008,03,24,03,13,0.00
2008,03,24,03,14,0.00
2008,03,24,03,15,0.00
2008,03,24,03,16,0.00
2008,03,24,03,17,0.00
2008,03,24,03,18,0.00
2008,03,24,03,19,0.00
2008,03,24,03,20,0.00
2008,03,24,03,21,0.00
2008,03,24,03,22,0.00
2008,03,24,03,23,0.00
2008,03,24,03,24,0.00
2008,03,24,03,25,0.00
2008,03,24,03,26,0.00
2008,03,24,03,27,0.00
2008,03,24,03,28,0.00
2008,03,24,03,29,0.00
2008,03,24,03,30,0.00
2008,03,24,03,31,0.00
2008,03,24,03,32,0.00
2008,03,24,03,33,0.00
2008,03,24,03,34,0.00
2008,03,24,03,35,0.00
2008,03,24,03,36,0.00
2008,03,24,03,37,0.00
2008,03,24,03,38,0.00
2008,03,24,03,39,0.00
2008,03,24,03,40,0.00
2008,03,24,03,41,0.00
2008,03,24,03,42,0.00
2008,03,24,03,43,0.00
2008,03,24,03,44,0.00
2008,03,24,03,45,0.00
2008,03,24,03,46,0.00
2008,03,24,03,47,0.00
2008,03,24,03,48,0.00
2008,03,24,03,49,0.00
2008,03,24,03,50,0.00
2008,03,24,03,51,0.00
2008,03,24,03,52,0.00
2008,03,24,03,53,0.00
2008,03,24,03,54,0.00
2008,03,24,03,55,0.00
2008,03,24,03,56,0.00
2008,03,24,03,57,0.00
2008,03,24,03,58,0.00
2008,03,24,03,59,0.00
2008,03,24,04,00,0.00
2008,03,24,04,01,0.00
2008,03,24,04,02,0.00
2008,03,24,04,03,0.00
2008,03,24,04,04,0.00
2008,03,24,04,05,0.00
2008,03,24,04,06,0.00
2008,03,24,04,07,0.00
2008,03,24,04,08,0.00
2008,03,24,04,09,0.00
2008,03,24,04,10,0.00
2008,03,24,04,11,0.00
2008,03,24,04,12,0.00
2008,03,24,04,13,0.00
2008,03,24,04,14,0.00
2008,03,24,04,15,0.00
2008,03,24,04,16,0.00
2008,03,24,04,17,0.00
2008,03,24,04,18,0.00
2008,03,24,04,19,0.00
2008,03,24,04,20,0.00
2008,03,24,04,21,0.00
2008,03,24,04,22,0.00
2008,03,24,04,23,0.00
2008,03,24,04,24,0.00
2008,03,24,04,25,0.00
2008,03,24,04,26,0.00
2008,03,24,04,27,0.00
2008,03,24,04,28,0.00
2008,03,24,04,29,0.00
2008,03,24,04,30,0.00
2008,03,24,04,31,0.00
2008,03,24,04,32,0.00
2008,03,24,04,33,0.00
2008,03,24,04,34,0.00
2008,03,24,04,35,0.00
2008,03,24,04,36,0.00
2008,03,24,04,37,0.00
2008,03,24,04,38,0.00
2008,03,24,04,39,0.00
2008,03,24,04,40,0.00
2008,03,24,04,41,0.00
2008,03,24,04,42,0.00
2008,03,24,04,43,0.00
2008,03,24,04,44,0.00
2008,03,24,04,45,0.00
2008,03,24,04,46,0.00
2008,03,24,04,47,0.00
2008,03,24,04,48,0.00
2008,03,24,04,49,0.00
2008,03,24,04,50,0.00
2008,03,24,04,51,0.00
2008,03,24,04,52,0.00
2008,03,24,04,53,0.00
2008,03,24,04,54,0.00
2008,03,24,04,55,0.00
2008,03,24,04,56,0.00
2008,03,24,04,57,0.00
2008,03,24,04,58,0.00
2008,03,24,04,59,0.00
2008,03,24,05,00,0.00
2008,03,24,05,01,0.00
2008,03,24,05,02,0.00
2008,03,24,05,03,0.00
2008,03,24,05,04,0.00
2008,03,24,05,06,0.00
2008,03,24,05,07,0.00
2008,03,24,05,08,0.00
2008,03,24,05,09,0.00
2008,03,24,05,10,0.00
2008,03,24,05,11,0.00
2008,03,24,05,12,0.00
2008,03,24,05,13,0.00
2008,03,24,05,14,0.00
2008,03,24,05,15,0.00
2008,03,24,05,16,0.00
2008,03,24,05,17,0.00
2008,03,24,05,18,0.00
2008,03,24,05,19,0.00
2008,03,24,05,20,0.00
2008,03,24,05,21,0.00
2008,03,24,05,22,0.00
2008,03,24,05,23,0.00
2008,03,24,05,24,0.00
2008,03,24,05,25,0.00
2008,03,24,05,26,0.00
2008,03,24,05,27,0.00
2008,03,24,05,28,0.00
2008,03,24,05,29,0.00
2008,03,24,05,30,0.00
2008,03,24,05,31,0.00
2008,03,24,05,32,0.00
2008,03,24,05,33,0.00
2008,03,24,05,34,0.00
2008,03,24,05,35,0.00
2008,03,24,05,36,0.00
2008,03,24,05,37,0.00
2008,03,24,05,38,0.00
2008,03,24,05,39,0.00
2008,03,24,05,40,0.00
2008,03,24,05,41,0.00
2008,03,24,05,42,0.00
2008,03,24,05,43,0.00
2008,03,24,05,44,0.00
2008,03,24,05,45,0.00
2008,03,24,05,46,0.00
2008,03,24,05,47,0.00
2008,03,24,05,48,0.00
2008,03,24,05,49,0.00
2008,03,24,05,50,0.00
2008,03,24,05,51,0.00
2008,03,24,05,52,0.00
2008,03,24,05,53,0.00
2008,03,24,05,54,0.00
2008,03,24,05,55,0.00
2008,03,24,05,56,0.00
2008,03,24,05,57,0.00
2008,03,24,05,58,0.00
2008,03,24,05,59,0.00
2008,03,24,06,00,0.00
2008,03,24,06,01,0.00
2008,03,24,06,02,0.00
2008,03,24,06,03,0.00
2008,03,24,06,04,0.00
2008,03,24,06,05,0.00
2008,03,24,06,06,0.00
2008,03,24,06,07,0.00
2008,03,24,06,08,0.00
2008,03,24,06,09,0.00
2008,03,24,06,10,0.00
2008,03,24,06,11,0.00
2008,03,24,06,12,0.00
2008,03,24,06,13,0.00
2008,03,24,06,14,0.00
2008,03,24,06,15,0.00
2008,03,24,06,16,0.00
2008,03,24,06,17,0.00
2008,03,24,06,18,0.00
2008,03,24,06,19,0.00
2008,03,24,06,20,0.00
2008,03,24,06,21,0.00
2008,03,24,06,22,0.00
2008,03,24,06,23,0.00
2008,03,24,06,24,0.00
2008,03,24,06,25,0.00
2008,03,24,06,26,0.00
2008,03,24,06,27,0.00
2008,03,24,06,28,0.00
2008,03,24,06,29,0.00
2008,03,24,06,30,0.00
2008,03,24,06,31,0.00
2008,03,24,06,32,0.00
2008,03,24,06,33,0.00
2008,03,24,06,34,0.00
2008,03,24,06,35,0.00
2008,03,24,06,36,0.00
2008,03,24,06,37,0.00
2008,03,24,06,38,0.00
2008,03,24,06,39,0.00
2008,03,24,06,40,0.00
2008,03,24,06,41,0.00
2008,03,24,06,42,0.00
2008,03,24,06,43,0.00
2008,03,24,06,44,0.00
2008,03,24,06,45,0.00
2008,03,24,06,46,0.00
2008,03,24,06,47,0.00
2008,03,24,06,48,0.00
2008,03,24,06,49,0.00
2008,03,24,06,50,0.00
2008,03,24,06,51,0.00
2008,03,24,06,52,0.00
2008,03,24,06,53,0.00
2008,03,24,06,54,0.00
2008,03,24,06,55,0.00
2008,03,24,06,56,0.00
2008,03,24,06,57,0.00
2008,03,24,06,58,0.00
2008,03,24,06,59,0.00
2008,03,24,07,00,0.00
2008,03,24,07,01,0.00
2008,03,24,07,02,0.00
2008,03,24,07,03,0.00
2008,03,24,07,04,0.00
2008,03,24,07,05,0.00
2008,03,24,07,06,0.00
2008,03,24,07,07,0.00
2008,03,24,07,08,0.00
2008,03,24,07,09,0.00
2008,03,24,07,10,0.00
2008,03,24,07,11,0.00
2008,03,24,07,12,0.00
2008,03,24,07,13,2.40
2008,03,24,07,14,5.00
2008,03,24,07,15,5.00
2008,03,24,07,16,6.90
2008,03,24,07,17,7.30
2008,03,24,07,18,9.00
2008,03,24,07,19,9.80
2008,03,24,07,20,11.70
2008,03,24,07,21,12.00
2008,03,24,07,22,13.70
2008,03,24,07,23,14.30
2008,03,24,07,24,16.70
2008,03,24,07,25,19.40
2008,03,24,07,26,23.40
2008,03,24,07,27,27.50
2008,03,24,07,28,30.10
2008,03,24,07,29,32.20
2008,03,24,07,30,33.00
2008,03,24,07,31,34.00
2008,03,24,07,32,35.00
2008,03,24,07,33,35.00
2008,03,24,07,34,33.00
2008,03,24,07,35,33.50
2008,03,24,07,36,35.00
2008,03,24,07,37,36.00
2008,03,24,07,38,35.60
2008,03,24,07,39,35.00
2008,03,24,07,40,39.30
2008,03,24,07,41,55.70
2008,03,24,07,42,60.80
2008,03,24,07,43,62.50
2008,03,24,07,44,65.40
2008,03,24,07,45,67.00
2008,03,24,07,46,68.80
2008,03,24,07,47,66.10
2008,03,24,07,48,62.00
2008,03,24,07,49,57.80
2008,03,24,07,50,54.40
2008,03,24,07,51,53.10
2008,03,24,07,52,52.60
2008,03,24,07,53,48.50
2008,03,24,07,54,47.00
2008,03,24,07,55,49.40
2008,03,24,07,56,63.30
2008,03,24,07,57,70.00
2008,03,24,07,58,69.00
2008,03,24,07,59,65.20
2008,03,24,08,00,55.20
2008,03,24,08,01,54.00
2008,03,24,08,02,56.80
2008,03,24,08,03,61.40
2008,03,24,08,04,63.40
2008,03,24,08,05,65.60
2008,03,24,08,06,67.90
2008,03,24,08,07,69.60
2008,03,24,08,08,73.30
2008,03,24,08,09,75.90
2008,03,24,08,10,79.70
2008,03,24,08,11,83.90
2008,03,24,08,12,88.10
2008,03,24,08,13,90.60
2008,03,24,08,14,92.40
2008,03,24,08,15,94.90
2008,03,24,08,16,100.70
2008,03,24,08,17,104.40
2008,03,24,08,18,107.10
2008,03,24,08,19,111.60
2008,03,24,08,20,117.40
2008,03,24,08,21,121.10
2008,03,24,08,22,123.40
2008,03,24,08,23,125.80
2008,03,24,08,24,128.70
2008,03,24,08,25,131.40
2008,03,24,08,26,136.40
2008,03,24,08,27,156.00
2008,03,24,08,28,182.10
2008,03,24,08,29,210.90
2008,03,24,08,30,150.50
2008,03,24,08,31,146.00
2008,03,24,08,32,155.40
2008,03,24,08,33,165.90
2008,03,24,08,34,144.50
2008,03,24,08,35,146.80
2008,03,24,08,36,149.50
2008,03,24,08,37,152.30
2008,03,24,08,38,155.80
2008,03,24,08,39,158.00
2008,03,24,08,40,158.00
2008,03,24,08,41,157.20
2008,03,24,08,42,156.00
2008,03,24,08,43,156.00
2008,03,24,08,44,157.70
2008,03,24,08,45,160.00
2008,03,24,08,46,160.00
2008,03,24,08,47,160.00
2008,03,24,08,48,158.70
2008,03,24,08,49,155.50
2008,03,24,08,50,153.00
2008,03,24,08,51,151.40
2008,03,24,08,52,154.80
2008,03,24,08,53,153.90
2008,03,24,08,54,168.20
2008,03,24,08,55,184.00
2008,03,24,08,56,171.70
2008,03,24,08,57,172.30
2008,03,24,08,58,186.80
2008,03,24,08,59,157.40
2008,03,24,09,00,153.00
2008,03,24,09,01,154.80
2008,03,24,09,02,157.80
2008,03,24,09,03,160.70
2008,03,24,09,04,163.80
2008,03,24,09,05,167.00
2008,03,24,09,06,172.60
2008,03,24,09,07,180.20
2008,03,24,09,08,183.00
2008,03,24,09,09,182.40
2008,03,24,09,10,181.00
2008,03,24,09,11,176.70
2008,03,24,09,12,172.60
2008,03,24,09,13,171.20
2008,03,24,09,14,168.50
2008,03,24,09,15,164.50
2008,03,24,09,16,163.00
2008,03,24,09,17,162.40
2008,03,24,09,18,162.00
2008,03,24,09,19,166.70
2008,03,24,09,20,165.10
2008,03,24,09,21,165.00
2008,03,24,09,22,164.10
2008,03,24,09,23,163.00
2008,03,24,09,24,164.40
2008,03,24,09,25,165.00
2008,03,24,09,26,167.00
2008,03,24,09,27,167.60
2008,03,24,09,28,174.00
2008,03,24,09,29,199.70
2008,03,24,09,30,238.30
2008,03,24,09,31,236.40
2008,03,24,09,32,284.60
2008,03,24,09,33,262.80
2008,03,24,09,34,290.00
2008,03,24,09,35,297.30
2008,03,24,09,36,309.30
2008,03,24,09,37,278.30
2008,03,24,09,38,286.70
2008,03,24,09,39,295.00
2008,03,24,09,40,291.50
2008,03,24,09,41,370.40
2008,03,24,09,42,373.70
2008,03,24,09,43,414.40
2008,03,24,09,44,443.90
2008,03,24,09,45,467.70
2008,03,24,09,46,458.80
2008,03,24,09,47,439.90
2008,03,24,09,48,446.80
2008,03,24,09,49,471.00
2008,03,24,09,50,492.90
2008,03,24,09,51,490.80
2008,03,24,09,52,483.80
2008,03,24,09,53,467.30
2008,03,24,09,54,475.20
2008,03,24,09,55,490.40
2008,03,24,09,56,449.50
2008,03,24,09,57,410.00
2008,03,24,09,58,396.20
2008,03,24,09,59,351.40
2008,03,24,10,00,341.00
2008,03,24,10,01,393.40
2008,03,24,10,02,355.00
2008,03,24,10,03,424.60
2008,03,24,10,04,548.40
2008,03,24,10,05,544.10
2008,03,24,10,06,514.60
2008,03,24,10,07,422.80
2008,03,24,10,08,381.00
2008,03,24,10,09,490.00
2008,03,24,10,10,584.30
2008,03,24,10,11,577.00
2008,03,24,10,12,431.60
2008,03,24,10,13,389.50
2008,03,24,10,14,357.00
2008,03,24,10,15,392.50
2008,03,24,10,16,376.00
2008,03,24,10,17,376.00
2008,03,24,10,18,228.50
2008,03,24,10,19,196.10
2008,03,24,10,20,194.60
2008,03,24,10,21,207.10
2008,03,24,10,22,232.20
2008,03,24,10,23,248.80
2008,03,24,10,24,253.60
2008,03,24,10,25,231.40
2008,03,24,10,26,232.10
2008,03,24,10,27,237.00
2008,03,24,10,28,452.90
2008,03,24,10,29,536.00
2008,03,24,10,30,243.90
2008,03,24,10,31,239.90
2008,03,24,10,32,198.60
2008,03,24,10,33,190.00
2008,03,24,10,34,197.00
2008,03,24,10,35,203.70
2008,03,24,10,36,186.80
2008,03,24,10,37,253.00
2008,03,24,10,38,360.10
2008,03,24,10,39,545.00
2008,03,24,10,40,573.10
2008,03,24,10,41,561.60
2008,03,24,10,42,551.20
2008,03,24,10,43,545.00
2008,03,24,10,44,549.50
2008,03,24,10,45,564.40
2008,03,24,10,46,570.00
2008,03,24,10,47,570.00
2008,03,24,10,48,562.00
2008,03,24,10,49,556.30
2008,03,24,10,50,554.50
2008,03,24,10,51,552.70
2008,03,24,10,52,550.40
2008,03,24,10,53,554.00
2008,03,24,10,54,555.00
2008,03,24,10,55,558.20
2008,03,24,10,56,568.50
2008,03,24,10,57,574.30
2008,03,24,10,58,580.80
2008,03,24,10,59,584.40
2008,03,24,11,00,593.20
2008,03,24,11,01,601.70
2008,03,24,11,02,613.80
2008,03,24,11,03,590.10
2008,03,24,11,04,578.00
2008,03,24,11,05,302.60
2008,03,24,11,06,272.00
2008,03,24,11,07,270.70
2008,03,24,11,08,269.00
2008,03,24,11,09,365.70
2008,03,24,11,10,406.00
2008,03,24,11,11,226.20
2008,03,24,11,12,225.80
2008,03,24,11,13,311.80
2008,03,24,11,14,350.00
2008,03,24,11,15,399.70
2008,03,24,11,16,415.00
2008,03,24,11,17,522.00
2008,03,24,11,18,522.00
2008,03,24,11,19,522.00
2008,03,24,11,20,317.30
2008,03,24,11,21,171.70
2008,03,24,11,22,165.30
2008,03,24,11,23,168.30
2008,03,24,11,24,193.00
2008,03,24,11,25,193.00
2008,03,24,11,26,193.00
2008,03,24,11,27,333.80
2008,03,24,11,28,374.00
2008,03,24,11,29,421.50
2008,03,24,11,30,659.00
2008,03,24,11,31,659.00
2008,03,24,11,32,659.00
2008,03,24,11,33,377.60
2008,03,24,11,34,261.20
2008,03,24,11,35,300.10
2008,03,24,11,36,283.10
2008,03,24,11,37,329.70
2008,03,24,11,38,355.00
2008,03,24,11,39,674.40
2008,03,24,11,40,723.30
2008,03,24,11,41,724.00
2008,03,24,11,42,724.00
2008,03,24,11,43,569.40
2008,03,24,11,44,412.20
2008,03,24,11,45,479.00
2008,03,24,11,46,397.50
2008,03,24,11,47,363.40
2008,03,24,11,48,317.00
2008,03,24,11,49,290.30
2008,03,24,11,50,270.90
2008,03,24,11,51,265.20
2008,03,24,11,52,267.50
2008,03,24,11,53,273.50
2008,03,24,11,54,275.10
2008,03,24,11,55,266.10
2008,03,24,11,56,247.90
2008,03,24,11,57,230.20
2008,03,24,11,58,219.50
2008,03,24,11,59,214.80
2008,03,24,12,00,208.20
2008,03,24,12,01,202.90
2008,03,24,12,02,203.30
2008,03,24,12,03,210.60
2008,03,24,12,04,218.80
2008,03,24,12,05,226.20
2008,03,24,12,06,229.50
2008,03,24,12,07,229.00
2008,03,24,12,08,229.70
2008,03,24,12,09,241.00
2008,03,24,12,10,275.40
2008,03,24,12,11,318.10
2008,03,24,12,12,285.00
2008,03,24,12,13,267.10
2008,03,24,12,14,281.50
2008,03,24,12,15,283.00
2008,03,24,12,16,321.20
2008,03,24,12,17,538.00
2008,03,24,12,18,387.00
2008,03,24,12,19,231.30
2008,03,24,12,20,225.70
2008,03,24,12,21,222.80
2008,03,24,12,22,218.60
2008,03,24,12,23,211.90
2008,03,24,12,24,204.80
2008,03,24,12,25,198.40
2008,03,24,12,26,193.50
2008,03,24,12,27,192.10
2008,03,24,12,28,193.60
2008,03,24,12,29,195.80
2008,03,24,12,30,198.20
2008,03,24,12,31,199.00
2008,03,24,12,32,195.50
2008,03,24,12,33,190.30
2008,03,24,12,34,184.80
2008,03,24,12,35,180.10
2008,03,24,12,36,178.40
2008,03,24,12,37,176.50
2008,03,24,12,38,176.00
2008,03,24,12,39,176.40
2008,03,24,12,40,180.00
2008,03,24,12,41,185.40
2008,03,24,12,42,190.90
2008,03,24,12,43,197.20
2008,03,24,12,44,203.70
2008,03,24,12,45,206.20
2008,03,24,12,46,207.00
2008,03,24,12,47,207.00
2008,03,24,12,48,206.40
2008,03,24,12,49,204.40
2008,03,24,12,50,199.30
2008,03,24,12,51,194.80
2008,03,24,12,52,190.20
2008,03,24,12,53,183.60
2008,03,24,12,54,179.00
2008,03,24,12,55,176.30
2008,03,24,12,56,176.10
2008,03,24,12,57,178.50
2008,03,24,12,58,182.20
2008,03,24,12,59,188.70
2008,03,24,13,00,195.00
2008,03,24,13,01,199.50
2008,03,24,13,02,203.90
2008,03,24,13,03,209.80
2008,03,24,13,04,218.30
2008,03,24,13,05,230.80
2008,03,24,13,06,240.20
2008,03,24,13,07,249.70
2008,03,24,13,08,258.80
2008,03,24,13,09,266.30
2008,03,24,13,10,274.30
2008,03,24,13,11,280.00
2008,03,24,13,12,285.20
2008,03,24,13,13,297.70
2008,03,24,13,14,348.70
2008,03,24,13,15,403.80
2008,03,24,13,16,492.00
2008,03,24,13,17,538.50
2008,03,24,13,18,562.00
2008,03,24,13,19,610.30
2008,03,24,13,20,649.00
2008,03,24,13,21,605.00
2008,03,24,13,22,465.20
2008,03,24,13,23,448.20
2008,03,24,13,24,462.90
2008,03,24,13,25,482.20
2008,03,24,13,26,429.00
2008,03,24,13,27,479.00
2008,03,24,13,28,613.50
2008,03,24,13,29,628.00
2008,03,24,13,30,628.00
2008,03,24,13,31,628.00
2008,03,24,13,32,628.00
2008,03,24,13,33,621.40
2008,03,24,13,34,606.00
2008,03,24,13,35,606.00
2008,03,24,13,36,356.80
2008,03,24,13,37,237.10
2008,03,24,13,38,240.90
2008,03,24,13,39,241.00
2008,03,24,13,40,215.00
2008,03,24,13,41,214.30
2008,03,24,13,42,221.80
2008,03,24,13,43,244.80
2008,03,24,13,44,262.10
2008,03,24,13,45,289.80
2008,03,24,13,46,315.40
2008,03,24,13,47,332.20
2008,03,24,13,48,339.80
2008,03,24,13,49,364.00
2008,03,24,13,50,364.00
2008,03,24,13,51,574.30
2008,03,24,13,52,965.00
2008,03,24,13,53,663.70
2008,03,24,13,54,641.40
2008,03,24,13,55,620.60
2008,03,24,13,56,306.60
2008,03,24,13,57,280.70
2008,03,24,13,58,262.50
2008,03,24,13,59,250.20
2008,03,24,14,00,254.60
2008,03,24,14,01,250.20
2008,03,24,14,02,250.30
2008,03,24,14,03,251.90
2008,03,24,14,04,254.20
2008,03,24,14,05,260.40
2008,03,24,14,06,271.40
2008,03,24,14,07,280.90
2008,03,24,14,08,296.10
2008,03,24,14,09,306.60
2008,03,24,14,10,318.30
2008,03,24,14,11,301.10
2008,03,24,14,12,283.40
2008,03,24,14,13,280.00
2008,03,24,14,14,278.80
2008,03,24,14,15,253.60
2008,03,24,14,16,236.30
2008,03,24,14,17,223.30
2008,03,24,14,18,212.20
2008,03,24,14,19,205.60
2008,03,24,14,20,202.60
2008,03,24,14,21,199.60
2008,03,24,14,22,203.70
2008,03,24,14,23,206.80
2008,03,24,14,24,197.80
2008,03,24,14,25,180.90
2008,03,24,14,26,167.90
2008,03,24,14,27,157.20
2008,03,24,14,28,148.10
2008,03,24,14,29,142.20
2008,03,24,14,30,141.10
2008,03,24,14,31,142.50
2008,03,24,14,32,145.40
2008,03,24,14,33,152.10
2008,03,24,14,34,158.60
2008,03,24,14,35,164.40
2008,03,24,14,36,171.80
2008,03,24,14,37,181.00
2008,03,24,14,38,203.60
2008,03,24,14,39,243.60
2008,03,24,14,40,267.10
2008,03,24,14,41,269.20
2008,03,24,14,42,292.90
2008,03,24,14,43,315.00
2008,03,24,14,44,349.20
2008,03,24,14,45,411.40
2008,03,24,14,46,450.90
2008,03,24,14,47,498.70
2008,03,24,14,48,528.80
2008,03,24,14,49,576.10
2008,03,24,14,50,588.20
2008,03,24,14,51,588.70
2008,03,24,14,52,663.30
2008,03,24,14,53,661.00
2008,03,24,14,54,659.00
2008,03,24,14,55,633.30
2008,03,24,14,56,618.60
2008,03,24,14,57,580.00
2008,03,24,14,58,537.20
2008,03,24,14,59,539.90
2008,03,24,15,00,585.40
2008,03,24,15,01,567.40
2008,03,24,15,02,587.00
2008,03,24,15,03,614.50
2008,03,24,15,04,656.00
2008,03,24,15,05,643.40
2008,03,24,15,06,647.50
2008,03,24,15,07,642.00
2008,03,24,15,08,686.70
2008,03,24,15,09,712.80
2008,03,24,15,10,685.50
2008,03,24,15,11,696.00
2008,03,24,15,12,694.80
2008,03,24,15,13,712.10
2008,03,24,15,14,711.50
2008,03,24,15,15,717.80
2008,03,24,15,16,667.40
2008,03,24,15,17,584.00
2008,03,24,15,18,562.80
2008,03,24,15,19,468.10
2008,03,24,15,20,381.00
2008,03,24,15,21,338.00
2008,03,24,15,22,226.90
2008,03,24,15,23,231.60
2008,03,24,15,24,257.40
2008,03,24,15,25,274.00
2008,03,24,15,26,274.00
2008,03,24,15,27,274.00
2008,03,24,15,28,455.30
2008,03,24,15,29,491.70
2008,03,24,15,30,546.70
2008,03,24,15,31,608.80
2008,03,24,15,32,609.00
2008,03,24,15,33,598.00
2008,03,24,15,34,598.00
2008,03,24,15,35,278.40
2008,03,24,15,36,284.20
2008,03,24,15,37,295.30
2008,03,24,15,38,285.70
2008,03,24,15,39,308.60
2008,03,24,15,40,298.10
2008,03,24,15,41,270.30
2008,03,24,15,42,267.00
2008,03,24,15,43,272.80
2008,03,24,15,44,291.40
2008,03,24,15,45,372.00
2008,03,24,15,46,410.80
2008,03,24,15,47,634.40
2008,03,24,15,48,585.00
2008,03,24,15,49,585.00
2008,03,24,15,50,597.70
2008,03,24,15,51,579.00
2008,03,24,15,52,561.90
2008,03,24,15,53,485.70
2008,03,24,15,54,462.00
2008,03,24,15,55,450.40
2008,03,24,15,56,459.00
2008,03,24,15,57,352.30
2008,03,24,15,58,323.00
2008,03,24,15,59,321.20
2008,03,24,16,00,313.10
2008,03,24,16,01,276.50
2008,03,24,16,02,252.40
2008,03,24,16,03,235.00
2008,03,24,16,04,225.00
2008,03,24,16,05,240.50
2008,03,24,16,06,282.50
2008,03,24,16,07,247.30
2008,03,24,16,08,227.40
2008,03,24,16,09,227.00
2008,03,24,16,10,229.60
2008,03,24,16,11,250.30
2008,03,24,16,12,266.60
2008,03,24,16,13,247.10
2008,03,24,16,14,300.90
2008,03,24,16,15,296.20
2008,03,24,16,16,350.90
2008,03,24,16,17,331.30
2008,03,24,16,18,303.30
2008,03,24,16,19,270.70
2008,03,24,16,20,255.90
2008,03,24,16,21,244.90
2008,03,24,16,22,226.70
2008,03,24,16,23,213.00
2008,03,24,16,24,196.50
2008,03,24,16,25,181.30
2008,03,24,16,26,170.50
2008,03,24,16,27,162.90
2008,03,24,16,28,161.60
2008,03,24,16,29,159.30
2008,03,24,16,30,156.90
2008,03,24,16,31,154.00
2008,03,24,16,32,149.50
2008,03,24,16,33,147.80
2008,03,24,16,34,145.40
2008,03,24,16,35,144.00
2008,03,24,16,36,144.00
2008,03,24,16,37,146.60
2008,03,24,16,38,152.40
2008,03,24,16,39,160.40
2008,03,24,16,40,168.00
2008,03,24,16,41,172.80
2008,03,24,16,42,175.20
2008,03,24,16,43,176.00
2008,03,24,16,44,176.00
2008,03,24,16,45,178.20
2008,03,24,16,46,182.10
2008,03,24,16,47,185.50
2008,03,24,16,48,185.40
2008,03,24,16,49,183.40
2008,03,24,16,50,192.40
2008,03,24,16,51,194.10
2008,03,24,16,52,189.40
2008,03,24,16,53,191.60
2008,03,24,16,54,193.90
2008,03,24,16,55,181.30
2008,03,24,16,56,173.10
2008,03,24,16,57,172.70
2008,03,24,16,58,177.00
2008,03,24,16,59,180.00
2008,03,24,17,00,181.00
2008,03,24,17,01,179.50
2008,03,24,17,02,174.00
2008,03,24,17,03,167.40
2008,03,24,17,04,158.50
2008,03,24,17,05,149.30
2008,03,24,17,06,140.60
2008,03,24,17,07,129.60
2008,03,24,17,08,121.60
2008,03,24,17,09,117.30
2008,03,24,17,10,113.70
2008,03,24,17,11,110.80
2008,03,24,17,12,106.20
2008,03,24,17,13,101.20
2008,03,24,17,14,94.60
2008,03,24,17,15,87.00
2008,03,24,17,16,80.50